Regional Weather Roundup
Issued by NWS

Home | Current Version | Previous Version | Text Only | Print | Product List | Glossary On
Versions: 1 2 3 4 5 6 7 8 9 10 11 12 13 14 15 16 17 18 19 20 21 22 23 24 25 26 27 28 29 30 31 32 33 34 35 36 37 38 39 40 41 42 43 44 45 46 47 48 49 50
000
ASUS43 KLOT 200406
RWRIL

ILLINOIS REGIONAL WEATHER ROUNDUP
NATIONAL WEATHER SERVICE CHICAGO/ROMEOVILLE IL
1100 PM CDT SAT APR 19 2014

NOTE: "FAIR" INDICATES FEW OR NO CLOUDS BELOW 12,000 FEET WITH NO
SIGNIFICANT WEATHER AND/OR OBSTRUCTIONS TO VISIBILITY.

* THESE STATIONS ARE NOT UNDER NWS QUALITY CONTROL. THEY ALSO MAY NOT
  REPORT WEATHER SUCH AS PRECIPITATION OR FOG.

ILZ001-002-007-009-015-016-024-200500-
NORTHWEST ILLINOIS

CITY           SKY/WX    TMP DP  RH WIND       PRES   REMARKS
MOLINE         PTCLDY    55  35  47 S9        30.15F
STERLING*      PTCLDY    50  36  57 SE7       30.18S
SAVANNA*       PTCLDY    55  35  46 S7        30.17S
$$

ILZ003-004-008-010-011-017-018-200500-
NORTH CENTRAL ILLINOIS

CITY           SKY/WX    TMP DP  RH WIND       PRES   REMARKS
ROCKFORD       PTCLDY    55  37  50 S9        30.22R
FREEPORT*      MOCLDY    50  38  63 SE6       30.21S
ROCHELLE*      FAIR      54  37  53 SE12      30.21R
DE KALB*       PTCLDY    53  36  53 SE12      30.22R
$$

ILZ005-006-012>014-019>023-200500-
NORTHEAST ILLINOIS

CITY           SKY/WX    TMP DP  RH WIND       PRES   REMARKS
CHICAGO-OHARE  MOCLDY    56  35  45 SE14      30.23F
CHICAGO-MIDWAY MOCLDY    58  36  43 SE13      30.24F
AURORA         PTCLDY    55  37  50 SE13      30.22S
LANSING*       MOCLDY    55  33  44 SE10      30.26S
WAUKEGAN       MOCLDY    45  34  65 SE8       30.23F
DUPAGE AIRPORT MOCLDY    56  37  49 SE10      30.22S
KANKAKEE*      MOCLDY    55  39  55 SE10      30.25S
WHEELING       MOCLDY    48  37  65 SE3       30.25S
MORRIS*        PTCLDY    57  33  39 SE10      30.22S
NORTHERLY ISL    N/A     48  41  76 SE2         N/A
$$

LMZ740>746-200500-
SOUTHERN LAKE MICHIGAN

STATION/POSITION SKY/WX   TEMP    WIND        PRES    VSBY  WAVE
                          AIR SEA DIR/SP/G                  HT/PER
                          (F)     (DEG/KT/KT) (MB)    (MI)  (FT/S)
WAUKEGAN HARBOR            42     190/  6/  8 1025.4F
HARRISON CRIB              48     140/ 13/ 16   N/A
BURNHAM HARBOR             48     140/  5       N/A
CALUMET HARBOR             56     130/ 11/ 15 1025.0F
MICHIGAN CITY              55     110/  9/ 12   N/A
$$

ILZ025>027-034>036-040-047-049-050-058-095>099-200500-
WEST-CENTRAL ILLINOIS

CITY           SKY/WX    TMP DP  RH WIND       PRES   REMARKS
QUINCY         CLEAR     59  41  51 SE9       30.16R
GALESBURG*     PTCLDY    58  40  50 SE6       30.17F
MACOMB*        PTCLDY    54  38  55 SE8       30.19S
JACKSONVILLE*  CLEAR     57  42  57 SE7       30.19S
PITTSFIELD*    CLEAR     60  42  51 SE6       30.18S
$$

ILZ028>032-037-038-041>044-048-051>054-059>061-200500-
CENTRAL ILLINOIS

CITY           SKY/WX    TMP DP  RH WIND       PRES   REMARKS
PONTIAC        PTCLDY    52  41  66 SE9       30.23S
BLOOMINGTON    PTCLDY    55  37  50 SE10      30.23S
DECATUR        PTCLDY    49  39  68 E5        30.22R
PEORIA         PTCLDY    60  36  40 SE6       30.20R
LACON*         PTCLDY    59  37  44 SE10      30.19S
LINCOLN*       PTCLDY    56  35  44 S3        30.21R
SPRINGFIELD    PTCLDY    60  39  45 SE10      30.20S
TAYLORVILLE    FAIR      59  36  41 SE5       30.21S
$$

ILZ033-039-045-046-055>057-062-063-200500-
EAST-CENTRAL ILLINOIS

CITY           SKY/WX    TMP DP  RH WIND       PRES   REMARKS
CHAMPAIGN      MOCLDY    50  39  66 E8        30.23R
RANTOUL*       MOCLDY    55  40  57 CALM      30.24S
MATTOON        PTCLDY    57  40  52 SE6       30.21S
PARIS*         PTCLDY    58  38  47 CALM      30.24S
$$

ILZ079-100>102-200500-
SOUTHWEST ILLINOIS

CITY           SKY/WX    TMP DP  RH WIND       PRES   REMARKS
ALTON          CLEAR     56  43  61 E5        30.20R
BELLEVILLE     CLEAR     59  45  59 E5        30.18S
CAHOKIA*       CLEAR     62  43  49 SE5       30.18S
SPARTA*        CLEAR     59  43  55 SE3       30.20S
$$

ILZ064>066-069>071-074>076-080>082-084>086-088>090-092>094-200500-
SOUTH-CENTRAL ILLINOIS

CITY           SKY/WX    TMP DP  RH WIND       PRES   REMARKS
CARBONDALE     CLEAR     55  42  61 CALM      30.19S
CAIRO*         CLEAR     60  46  59 CALM      30.18S
MARION         CLEAR     57  43  58 E6        30.20S
MT. VERNON     PTCLDY    48  37  66 CALM      30.21S
CENTRALIA*       N/A     52  46  80 CALM      30.20S
SALEM*         PTCLDY    56  47  71 CALM      30.21S
METROPOLIS*    PTCLDY    60  39  46 CALM      30.18S
$$

ILZ067-068-072-073-078-083-087-091-200500-
SOUTHEAST ILLINOIS

CITY           SKY/WX    TMP DP  RH WIND       PRES   REMARKS
FAIRFIELD*     PTCLDY    54  48  82 CALM      30.20S
HARRISBURG*    CLEAR     50  45  80 N3        30.21R
ROBINSON*      PTCLDY    56  43  62 E8        30.22S
CARMI*         PTCLDY    55  49  78 CALM      30.19F
$$

ABBREVIATIONS USED IN REMARKS
   TC - TEMPERATURE IN CELSIUS
  WCI - WIND CHILL INDEX
   HX - HEAT INDEX
  VSB - VISIBILITY
$$




USA.gov is the U.S. government's official web portal to all federal, state and local government web resources and services.